| time (UTC) | temp F | wind direction | speed MPH | gust MPH | rain 1hr in | rain 24hr in | rain mn in | humidity % | barometer mb |
| 20260505192018 | 80 | 180 | 2.0 | 8.0 | 0.00 | 0.00 | 0.00 | 35 | 1015.9 |
| 20260505191017 | 80 | 0 | 1.0 | 6.0 | 0.00 | 0.00 | 0.00 | 33 | 1016.0 |
| 20260505190017 | 81 | 0 | 2.0 | 5.0 | 0.00 | 0.00 | 0.00 | 33 | 1016.1 |
| 20260505185017 | 81 | 0 | 4.0 | 10.0 | 0.00 | 0.00 | 0.00 | 35 | 1016.2 |
| 20260505184017 | 80 | 0 | 2.0 | 8.0 | 0.00 | 0.00 | 0.00 | 36 | 1016.1 |
| 20260505183017 | 81 | 0 | 3.0 | 5.0 | 0.00 | 0.00 | 0.00 | 33 | 1016.3 |
| 20260505182017 | 81 | 0 | 3.0 | 10.0 | 0.00 | 0.00 | 0.00 | 34 | 1016.4 |
| 20260505181018 | 80 | 0 | 3.0 | 11.0 | 0.00 | 0.00 | 0.00 | 34 | 1016.7 |
| 20260505180016 | 81 | 0 | 2.0 | 3.0 | 0.00 | 0.00 | 0.00 | 36 | 1016.9 |
| 20260505175017 | 80 | 0 | 3.0 | 10.0 | 0.00 | 0.00 | 0.00 | 38 | 1017.1 |
| 20260505174017 | 81 | 0 | 2.0 | 4.0 | 0.00 | 0.00 | 0.00 | 36 | 1017.2 |
| 20260505173017 | 80 | 0 | 2.0 | 5.0 | 0.00 | 0.00 | 0.00 | 36 | 1017.3 |
| 20260505172017 | 79 | 0 | 2.0 | 6.0 | 0.00 | 0.00 | 0.00 | 37 | 1017.4 |
| 20260505171017 | 80 | 0 | 4.0 | 11.0 | 0.00 | 0.00 | 0.00 | 36 | 1017.4 |
| 20260505170017 | 79 | 0 | 2.0 | 6.0 | 0.00 | 0.00 | 0.00 | 39 | 1017.4 |
| 20260505165016 | 78 | 0 | 3.0 | 5.0 | 0.00 | 0.00 | 0.00 | 39 | 1017.2 |
| 20260505164016 | 78 | 0 | 2.0 | 6.0 | 0.00 | 0.00 | 0.00 | 38 | 1017.3 |
| 20260505163017 | 78 | 0 | 3.0 | 8.0 | 0.00 | 0.00 | 0.00 | 41 | 1017.4 |
| 20260505162016 | 77 | 0 | 4.0 | 9.0 | 0.00 | 0.00 | 0.00 | 39 | 1017.5 |
| 20260505161016 | 77 | 0 | 4.0 | 12.0 | 0.00 | 0.00 | 0.00 | 39 | 1017.6 |
| 20260505153016 | 73 | 0 | 1.0 | 3.0 | 0.00 | 0.00 | 0.00 | 52 | 1017.5 |
| 20260505152016 | 71 | 0 | 1.0 | 3.0 | 0.00 | 0.00 | 0.00 | 54 | 1017.4 |
| 20260505151016 | 70 | 0 | 3.0 | 8.0 | 0.00 | 0.00 | 0.00 | 54 | 1017.6 |
| 20260505125016 | 57 | 0 | 1.0 | 3.0 | 0.00 | 0.00 | 0.00 | 73 | 1017.0 |
| 20260505124016 | 56 | 0.0 | 0.0 | 0.00 | 0.00 | 0.00 | 74 | 1016.9 | |
| 20260505123037 | 56 | 0.0 | 0.0 | 0.00 | 0.00 | 0.00 | 76 | 1016.9 | |
| 20260505122016 | 55 | 0.0 | 2.0 | 0.00 | 0.00 | 0.00 | 79 | 1016.9 | |
| 20260505121016 | 54 | 180 | 1.0 | 3.0 | 0.00 | 0.00 | 0.00 | 80 | 1016.8 |
| 20260505120036 | 52 | 0.0 | 0.0 | 0.00 | 0.00 | 0.00 | 81 | 1016.9 | |
| 20260505115016 | 52 | 0.0 | 0.0 | 0.00 | 0.00 | 0.00 | 84 | 1016.7 | |
| 20260505114016 | 51 | 0.0 | 0.0 | 0.00 | 0.00 | 0.00 | 82 | 1016.4 | |
| 20260505113016 | 51 | 0.0 | 0.0 | 0.00 | 0.00 | 0.00 | 82 | 1016.3 | |
| 20260505112017 | 51 | 0.0 | 0.0 | 0.00 | 0.00 | 0.00 | 81 | 1016.1 | |
| 20260505111015 | 51 | 0.0 | 0.0 | 0.00 | 0.00 | 0.00 | 81 | 1016.0 | |
| 20260505102016 | 51 | 0.0 | 0.0 | 0.00 | 0.00 | 0.00 | 80 | 1015.9 | |
| 20260505101016 | 51 | 0.0 | 0.0 | 0.00 | 0.00 | 0.00 | 80 | 1015.9 | |
| 20260505100016 | 51 | 0.0 | 0.0 | 0.00 | 0.00 | 0.00 | 81 | 1016.3 | |
| 20260505095015 | 51 | 0.0 | 0.0 | 0.00 | 0.00 | 0.00 | 80 | 1016.2 | |
| 20260505094036 | 51 | 0.0 | 0.0 | 0.00 | 0.00 | 0.00 | 80 | 1016.1 | |
| 20260505093015 | 51 | 0.0 | 1.0 | 0.00 | 0.00 | 0.00 | 81 | 1016.0 | |
| 20260505092015 | 51 | 0.0 | 1.0 | 0.00 | 0.00 | 0.00 | 81 | 1016.0 | |
| 20260505091015 | 51 | 203 | 1.0 | 2.0 | 0.00 | 0.00 | 0.00 | 82 | 1016.1 |
| 20260505090037 | 51 | 0.0 | 0.0 | 0.00 | 0.00 | 0.00 | 82 | 1016.3 | |
| 20260505085038 | 51 | 0.0 | 1.0 | 0.00 | 0.00 | 0.00 | 83 | 1016.3 | |
| 20260505084037 | 51 | 0.0 | 1.0 | 0.00 | 0.00 | 0.00 | 84 | 1016.3 | |
| 20260505083017 | 51 | 0.0 | 2.0 | 0.00 | 0.00 | 0.00 | 84 | 1016.4 | |
| 20260505082016 | 51 | 0.0 | 0.0 | 0.00 | 0.00 | 0.00 | 84 | 1016.4 | |
| 20260505081017 | 51 | 0.0 | 0.0 | 0.00 | 0.00 | 0.00 | 84 | 1016.5 | |
| 20260505080018 | 51 | 0.0 | 0.0 | 0.00 | 0.00 | 0.00 | 83 | 1016.4 | |
| 20260505075017 | 51 | 0.0 | 0.0 | 0.00 | 0.00 | 0.00 | 83 | 1016.4 | |
| 20260505074017 | 51 | 0.0 | 0.0 | 0.00 | 0.00 | 0.00 | 81 | 1016.5 | |
| 20260505073037 | 52 | 0.0 | 0.0 | 0.00 | 0.00 | 0.00 | 81 | 1016.3 | |
| 20260505072017 | 52 | 0.0 | 0.0 | 0.00 | 0.00 | 0.00 | 80 | 1016.4 | |
| 20260505071017 | 52 | 0.0 | 0.0 | 0.00 | 0.00 | 0.00 | 79 | 1016.4 | |
| 20260505070017 | 52 | 0.0 | 0.0 | 0.00 | 0.00 | 0.00 | 79 | 1016.4 | |
| 20260505065018 | 53 | 0.0 | 0.0 | 0.00 | 0.00 | 0.00 | 78 | 1016.3 | |
| 20260505064017 | 53 | 0.0 | 0.0 | 0.00 | 0.00 | 0.00 | 77 | 1016.5 | |
| 20260505063017 | 53 | 0.0 | 0.0 | 0.00 | 0.00 | 0.00 | 75 | 1016.4 | |
| 20260505062037 | 54 | 0.0 | 0.0 | 0.00 | 0.00 | 0.00 | 74 | 1016.6 | |
| 20260505061017 | 54 | 0.0 | 0.0 | 0.00 | 0.00 | 0.00 | 74 | 1016.7 | |
| 20260505060057 | 55 | 0.0 | 0.0 | 0.00 | 0.00 | 0.00 | 73 | 1016.6 | |
| 20260505055017 | 55 | 0.0 | 0.0 | 0.00 | 0.00 | 0.00 | 73 | 1016.8 | |
| 20260505054018 | 56 | 0.0 | 0.0 | 0.00 | 0.00 | 0.00 | 71 | 1016.8 | |
| 20260505053016 | 56 | 0.0 | 0.0 | 0.00 | 0.00 | 0.00 | 70 | 1016.7 | |
| 20260505052017 | 56 | 0.0 | 0.0 | 0.00 | 0.00 | 0.00 | 69 | 1016.7 | |
| 20260505051037 | 56 | 0.0 | 0.0 | 0.00 | 0.00 | 0.00 | 68 | 1016.6 | |
| 20260505041017 | 57 | 0.0 | 0.0 | 0.00 | 0.00 | 0.00 | 65 | 1016.6 | |
| 20260505040036 | 58 | 0.0 | 0.0 | 0.00 | 0.00 | 0.00 | 65 | 1016.6 | |
| 20260505035016 | 58 | 0.0 | 0.0 | 0.00 | 0.00 | 0.00 | 66 | 1016.6 | |
| 20260505034036 | 58 | 0.0 | 0.0 | 0.00 | 0.00 | 0.00 | 65 | 1016.6 | |
| 20260505033016 | 59 | 0.0 | 0.0 | 0.00 | 0.00 | 0.00 | 63 | 1016.4 | |
| 20260505032017 | 59 | 0.0 | 0.0 | 0.00 | 0.00 | 0.00 | 64 | 1016.5 | |
| 20260505031036 | 60 | 0.0 | 0.0 | 0.00 | 0.00 | 0.00 | 62 | 1016.5 | |
| 20260505030016 | 60 | 0.0 | 0.0 | 0.00 | 0.00 | 0.00 | 61 | 1016.4 | |
| 20260505025036 | 60 | 0.0 | 0.0 | 0.00 | 0.00 | 0.00 | 60 | 1016.5 | |
| 20260505024016 | 61 | 0.0 | 0.0 | 0.00 | 0.00 | 0.00 | 59 | 1016.5 | |
| 20260505023016 | 61 | 0.0 | 0.0 | 0.00 | 0.00 | 0.00 | 58 | 1016.4 | |
| 20260505022017 | 61 | 0.0 | 0.0 | 0.00 | 0.00 | 0.00 | 58 | 1016.2 | |
| 20260505021016 | 61 | 0.0 | 0.0 | 0.00 | 0.00 | 0.00 | 58 | 1016.2 | |
| 20260505020016 | 62 | 0.0 | 0.0 | 0.00 | 0.00 | 0.00 | 56 | 1015.9 | |
| 20260505015016 | 62 | 0.0 | 0.0 | 0.00 | 0.00 | 0.00 | 56 | 1015.9 | |
| 20260505014016 | 63 | 0.0 | 0.0 | 0.00 | 0.00 | 0.00 | 53 | 1015.9 | |
| 20260505013016 | 64 | 0.0 | 0.0 | 0.00 | 0.00 | 0.00 | 52 | 1015.6 | |
| 20260505012016 | 65 | 0.0 | 0.0 | 0.00 | 0.00 | 0.00 | 51 | 1015.6 | |
| 20260505011016 | 66 | 0.0 | 0.0 | 0.00 | 0.00 | 0.00 | 50 | 1015.6 | |
| 20260505010016 | 67 | 0.0 | 0.0 | 0.00 | 0.00 | 0.00 | 46 | 1015.5 | |
| 20260505005016 | 68 | 0.0 | 0.0 | 0.00 | 0.00 | 0.00 | 45 | 1015.3 | |
| 20260505004016 | 69 | 0.0 | 1.0 | 0.00 | 0.00 | 0.00 | 43 | 1015.4 | |
| 20260505003016 | 70 | 0.0 | 1.0 | 0.00 | 0.00 | 0.00 | 43 | 1015.3 | |
| 20260505002016 | 70 | 0 | 1.0 | 2.0 | 0.00 | 0.00 | 0.00 | 42 | 1015.3 |
| 20260505001017 | 71 | 0.0 | 0.0 | 0.00 | 0.00 | 0.00 | 42 | 1015.1 | |
| 20260505000016 | 72 | 0.0 | 0.0 | 0.00 | 0.00 | 0.00 | 41 | 1015.1 | |
| 20260504235016 | 73 | 0 | 1.0 | 3.0 | 0.00 | 0.00 | 0.00 | 40 | 1015.1 |
| 20260504234016 | 73 | 0 | 2.0 | 3.0 | 0.00 | 0.00 | 0.00 | 37 | 1015.1 |
| 20260504233016 | 74 | 203 | 2.0 | 5.0 | 0.00 | 0.00 | 0.00 | 37 | 1015.2 |
| 20260504232016 | 74 | 203 | 1.0 | 3.0 | 0.00 | 0.00 | 0.00 | 37 | 1015.1 |
| 20260504231016 | 75 | 203 | 1.0 | 4.0 | 0.00 | 0.00 | 0.00 | 34 | 1015.2 |
| 20260504230016 | 76 | 203 | 2.0 | 8.0 | 0.00 | 0.00 | 0.00 | 33 | 1015.1 |
| 20260504225015 | 76 | 0 | 1.0 | 3.0 | 0.00 | 0.00 | 0.00 | 34 | 1015.1 |
| 20260504224015 | 77 | 203 | 2.0 | 6.0 | 0.00 | 0.00 | 0.00 | 31 | 1015.3 |
| 20260504223015 | 77 | 0 | 2.0 | 3.0 | 0.00 | 0.00 | 0.00 | 31 | 1015.3 |
| 20260504222015 | 77 | 180 | 2.0 | 5.0 | 0.00 | 0.00 | 0.00 | 32 | 1015.3 |
| 20260504221015 | 78 | 158 | 2.0 | 6.0 | 0.00 | 0.00 | 0.00 | 33 | 1015.4 |
| 20260504220036 | 79 | 180 | 2.0 | 6.0 | 0.00 | 0.00 | 0.00 | 32 | 1015.3 |
| 20260504215016 | 79 | 180 | 2.0 | 6.0 | 0.00 | 0.00 | 0.00 | 33 | 1015.3 |
| 20260504214015 | 79 | 203 | 2.0 | 4.0 | 0.00 | 0.00 | 0.00 | 31 | 1015.3 |
| 20260504213015 | 80 | 225 | 1.0 | 5.0 | 0.00 | 0.00 | 0.00 | 33 | 1015.3 |
| 20260504212015 | 79 | 180 | 3.0 | 9.0 | 0.00 | 0.00 | 0.00 | 34 | 1015.4 |
| 20260504211015 | 78 | 180 | 2.0 | 5.0 | 0.00 | 0.00 | 0.00 | 34 | 1015.4 |
| 20260504210015 | 78 | 203 | 3.0 | 9.0 | 0.00 | 0.00 | 0.00 | 34 | 1015.6 |
| 20260504205015 | 78 | 180 | 1.0 | 4.0 | 0.00 | 0.00 | 0.00 | 33 | 1015.6 |
| 20260504204018 | 78 | 0 | 1.0 | 6.0 | 0.00 | 0.00 | 0.00 | 34 | 1015.6 |
| 20260504203017 | 79 | 0 | 2.0 | 6.0 | 0.00 | 0.00 | 0.00 | 35 | 1015.7 |
| 20260504202017 | 79 | 180 | 3.0 | 8.0 | 0.00 | 0.00 | 0.00 | 33 | 1015.9 |
| 20260504201017 | 80 | 180 | 2.0 | 4.0 | 0.00 | 0.00 | 0.00 | 32 | 1015.9 |
| 20260504200017 | 80 | 203 | 2.0 | 4.0 | 0.00 | 0.00 | 0.00 | 33 | 1016.1 |
| 20260504195017 | 80 | 203 | 1.0 | 4.0 | 0.00 | 0.00 | 0.00 | 32 | 1016.3 |
| 20260504194017 | 80 | 180 | 3.0 | 9.0 | 0.00 | 0.00 | 0.00 | 31 | 1016.5 |
| 20260504193018 | 80 | 0.0 | 0.0 | 0.00 | 0.00 | 0.00 | 33 | 1016.6 |